sat.trackr.live / text

‹ back to catalog

STARLINK-11416 [DTC]

NORAD 62594 · 2025-008H

PAYLOAD ACTIVE UNKNOWN

§ Identity

Operator
Country
US
Launch date
2025-01-13
Launch site
AFETR
Launch vehicle
Mass (kg)
RCS (m²)

Purposes: comms

External: N2YO · Heavens-Above · Gunter

§ Orbital elements

Epoch: 2026-05-25T00:22:29.884224Z

Period
91.01 min
Inclination
42.9934°
Eccentricity
0.0010199
Mean motion
15.82183230 rev/d
Perigee alt
317.4 km
Apogee alt
331.1 km
Semi-major
6,702.4 km
B*
1.3088e-3
RAAN
22.8686°
Arg perigee
246.2345°
Mean anomaly
113.7457°
Rev number
7,915

§ Raw data

STARLINK-11416 [DTC]1 62594U 25008H   26145.01562366  .00287465  00000+0  13088-2 0  99912 62594  42.9934  22.8686 0010199 246.2345 113.7457 15.82183230 79150

JSON: /api/v1/satellites/62594 · /tle

For live sub-satellite position, see the globe view (requires WebGL).

§ Visibility from observer

Set your observer location to see the next 7 days of passes ≥ 10°. The values pass through the URL so the page stays shareable.

No JS? Fill the form by hand. The geolocation button needs JavaScript.